Location: Marne
(34.0056°N, 117.9064°W)
Time: 01:54:29
(UTC+00:00)

Cosmos 962 Rocket - Pass Details

Date: 18 January 2020
Orbit: 951 x 999 km, 83.0° (Epoch: 19 February)

Event Time Altitude Azimuth Distance (km) Brightness Sun altitude
Rises 02:01:26 0° 174° (S) 3,611 7.6 -11.3°
Reaches altitude 10° 02:03:57 10° 170° (S) 2,668 6.9 -11.8°
Maximum altitude 02:09:55 60° 92° (E) 1,081 4.5 -13.0°
Drops below altitude 10° 02:15:56 10° 14° (NNE) 2,688 6.5 -14.2°
Sets 02:18:28 0° 11° (N) 3,641 7.2 -14.7°
